Terminal Aerodrome Forecast
Issued by NWS Miami, FL

Home | Current Version | Previous Version | Text Only | Print | Product List | Glossary On
Versions: 1 2 3 4 5 6 7 8 9 10 11 12 13 14 15 16 17 18 19 20 21 22 23 24 25 26 27 28 29 30 31 32 33 34 35 36 37 38 39 40 41 42 43 44 45 46 47 48 49 50
000
FTUS42 KMFL 291138
TAFPBI
TAF
KPBI 291138Z 2912/3012 09008KT P6SM VCSH SCT026 BKN035
     FM291700 10012KT P6SM SHRA VCTS SCT025CB BKN060
     FM300000 08013KT P6SM OVC060=

USA.gov is the U.S. government's official web portal to all federal, state and local government web resources and services.